Temp
5 5 5 5 5 4 4 4 4 4 3 3 3 3 2 2 2 2 2 2 2 1 1 1 1 1 1 0 0 0 -0 -0 -1 -1 -1 -1 -1 -1 -2 -2 -2 -2 -2 -3 -3 -3 -3 -3 -3 -3 -3 -3 -4 -4 -4 -4 -4 -4 -4 -4 -4 -4 -4 -4 -4 -4 -4 -4 -4
5 5 5 4 4 4 3 3 3 3 3 2 2 2 2 2 2 2 2 2 1 1 1 1 1 0 0 0 0 0 -0 -1 -1 -1 -1 -2 -2 -2 -2 -3 -3 -3 -3 -3 -3 -3 -3 -3 -3 -3 -3 -3 -3 -4 -4 -4 -4 -4 -4 -4 -4 -4 -4 -4 -4 -4 -4 -4 -4
4 4 4 4 3 3 3 3 2 2 2 2 2 2 2 2 2 2 2 1 1 1 1 1 0 0 0 0 0 -0 -0 -0 -1 -1 -2 -2 -2 -3 -3 -3 -3 -3 -3 -3 -3 -3 -3 -4 -4 -3 -3 -3 -3 -4 -4 -4 -4 -4 -4 -4 -4 -4 -4 -4 -4 -4 -4 -4 -4
4 4 4 4 3 3 3 3 3 3 3 3 3 2 2 2 2 2 1 1 1 1 1 1 0 0 0 0 -0 -0 -1 -1 -1 -1 -2 -2 -2 -3 -3 -3 -3 -3 -3 -3 -4 -4 -4 -4 -4 -3 -3 -3 -4 -4 -4 -4 -4 -4 -4 -4 -4 -4 -4 -4 -4 -4 -5 -5 -5
4 4 4 3 3 3 3 3 3 3 3 3 2 2 2 2 2 1 1 1 1 1 1 1 0 0 -0 -0 -0 -1 -1 -1 -1 -2 -2 -2 -3 -3 -3 -3 -3 -3 -3 -4 -4 -4 -4 -4 -4 -4 -3 -4 -4 -4 -4 -4 -4 -4 -4 -4 -4 -4 -4 -4 -5 -5 -5 -5 -5
3 3 3 3 3 3 3 3 3 3 2 2 2 2 2 2 1 1 1 1 1 1 1 1 0 0 -0 -0 -1 -1 -1 -2 -2 -2 -2 -3 -3 -3 -3 -3 -3 -3 -3 -3 -4 -4 -4 -4 -4 -4 -4 -4 -4 -4 -4 -4 -4 -4 -4 -4 -4 -4 -4 -5 -5 -5 -5 -5 -5
3 3 3 3 3 2 2 2 2 2 2 2 2 2 2 1 1 1 1 1 0 0 0 0 0 -0 -0 -1 -1 -1 -2 -2 -2 -2 -3 -3 -3 -3 -3 -3 -3 -3 -3 -3 -4 -4 -4 -4 -4 -4 -4 -4 -4 -4 -4 -4 -4 -5 -5 -5 -5 -5 -5 -5 -5 -5 -5 -5 -5
3 3 3 2 2 2 2 2 2 2 2 1 2 2 2 2 1 1 1 1 0 0 -0 -0 -0 -0 -1 -1 -1 -2 -2 -2 -2 -3 -3 -3 -3 -3 -3 -3 -3 -3 -3 -4 -4 -4 -4 -4 -4 -4 -4 -4 -4 -4 -4 -4 -5 -5 -5 -5 -5 -5 -5 -5 -5 -5 -5 -5 -5
3 3 3 2 3 2 2 2 2 2 2 2 2 2 2 2 1 1 1 0 0 0 -0 -0 -1 -1 -1 -1 -2 -2 -2 -2 -2 -3 -3 -3 -3 -3 -3 -3 -3 -3 -4 -4 -4 -4 -4 -4 -4 -4 -4 -4 -4 -4 -4 -4 -5 -5 -5 -5 -5 -5 -5 -5 -5 -5 -5 -5 -6
3 2 2 2 2 2 2 2 2 2 2 2 2 2 2 1 1 1 1 0 0 -0 -0 -1 -1 -1 -1 -2 -2 -2 -2 -2 -2 -3 -3 -3 -3 -3 -3 -4 -4 -4 -4 -4 -4 -4 -4 -4 -4 -4 -4 -4 -4 -4 -4 -4 -5 -5 -5 -5 -5 -5 -5 -5 -5 -5 -5 -5 -6
2 2 2 2 2 2 2 1 1 1 1 1 1 1 1 1 1 1 0 0 0 -0 -1 -1 -1 -1 -2 -2 -2 -2 -2 -3 -3 -3 -3 -3 -3 -4 -4 -4 -4 -4 -4 -4 -4 -4 -4 -4 -4 -4 -4 -4 -4 -4 -4 -4 -5 -5 -5 -5 -5 -5 -5 -5 -5 -5 -5 -6 -6
2 2 2 2 2 2 1 1 1 1 1 1 1 1 0 0 0 0 0 0 -0 -1 -1 -1 -1 -1 -2 -2 -2 -2 -2 -3 -3 -3 -3 -3 -4 -4 -4 -4 -4 -4 -4 -4 -4 -4 -4 -4 -4 -4 -4 -4 -4 -4 -4 -5 -5 -5 -5 -5 -5 -5 -5 -5 -5 -6 -6 -6 -6
2 2 2 2 2 1 1 1 1 1 1 1 1 0 -0 0 0 0 0 -0 -1 -1 -2 -2 -2 -2 -2 -2 -2 -2 -3 -3 -3 -3 -3 -4 -4 -4 -4 -4 -4 -4 -4 -4 -4 -4 -4 -4 -4 -4 -4 -4 -4 -5 -5 -5 -5 -5 -5 -5 -5 -5 -5 -6 -6 -6 -6 -6 -6
2 2 2 2 1 1 1 1 1 0 0 0 0 -0 -0 -0 -0 -0 -0 -1 -1 -1 -2 -2 -2 -2 -2 -2 -2 -3 -3 -3 -3 -3 -4 -4 -4 -4 -4 -4 -4 -4 -4 -4 -4 -4 -4 -4 -4 -4 -4 -5 -5 -5 -5 -5 -5 -5 -5 -5 -5 -5 -6 -6 -6 -6 -6 -6 -6
2 2 2 1 1 1 1 1 0 0 0 0 -0 -0 -0 -1 -0 -0 -1 -1 -1 -2 -2 -2 -2 -3 -3 -2 -2 -3 -3 -3 -3 -4 -4 -4 -4 -4 -4 -4 -4 -4 -4 -4 -4 -4 -4 -4 -4 -4 -5 -5 -5 -5 -5 -5 -5 -5 -6 -6 -6 -6 -6 -6 -6 -6 -6 -6 -6
2 1 1 1 1 1 0 0 0 0 -0 -0 -0 -1 -1 -1 -1 -1 -1 -1 -2 -2 -2 -2 -2 -3 -3 -3 -3 -3 -3 -3 -4 -4 -4 -4 -4 -4 -4 -4 -4 -4 -4 -4 -4 -4 -4 -4 -4 -5 -5 -5 -5 -5 -5 -5 -6 -6 -6 -6 -6 -6 -6 -6 -6 -6 -6 -6 -7
1 1 1 1 1 0 0 0 -0 -0 -0 -1 -1 -1 -1 -1 -1 -1 -1 -1 -2 -2 -2 -2 -2 -3 -3 -3 -3 -3 -3 -4 -4 -4 -4 -4 -4 -4 -4 -4 -4 -4 -4 -4 -4 -4 -4 -4 -4 -5 -5 -5 -5 -5 -5 -6 -6 -6 -6 -6 -6 -6 -6 -6 -6 -6 -6 -7 -7
1 1 1 0 0 0 -0 -0 -0 -1 -1 -1 -1 -1 -1 -1 -1 -1 -2 -2 -2 -2 -2 -2 -3 -3 -3 -3 -3 -4 -4 -4 -4 -4 -4 -4 -4 -4 -4 -4 -4 -4 -4 -4 -4 -4 -4 -4 -5 -5 -5 -5 -5 -6 -6 -6 -6 -6 -6 -6 -6 -6 -6 -6 -6 -6 -6 -7 -7
1 1 1 0 0 -0 -0 -0 -1 -1 -1 -1 -1 -1 -1 -1 -1 -2 -2 -2 -2 -2 -2 -3 -3 -3 -3 -3 -4 -4 -4 -4 -4 -4 -4 -4 -4 -4 -4 -4 -4 -4 -4 -4 -4 -4 -5 -5 -5 -5 -5 -5 -5 -6 -6 -6 -6 -6 -6 -6 -6 -6 -6 -6 -6 -6 -7 -7 -7
1 1 0 0 0 -0 -0 -1 -1 -1 -1 -1 -1 -1 -1 -1 -2 -2 -2 -3 -3 -3 -3 -3 -3 -3 -3 -4 -4 -4 -4 -4 -4 -4 -4 -4 -4 -4 -4 -4 -4 -4 -4 -4 -5 -5 -5 -5 -5 -5 -5 -6 -6 -6 -6 -6 -6 -6 -6 -6 -6 -6 -6 -6 -7 -7 -7 -7 -7
1 1 0 0 0 -0 -0 -1 -1 -1 -1 -1 -1 -1 -1 -2 -2 -2 -2 -3 -3 -3 -3 -3 -3 -3 -4 -4 -4 -4 -4 -4 -4 -4 -4 -4 -4 -4 -4 -4 -4 -5 -5 -5 -5 -5 -5 -5 -5 -6 -6 -6 -6 -6 -6 -6 -6 -6 -6 -6 -6 -7 -7 -7 -7 -7 -7 -7 -7
1 1 0 0 -0 -0 -1 -1 -1 -1 -1 -1 -1 -1 -2 -2 -2 -2 -3 -3 -3 -3 -3 -3 -3 -4 -4 -4 -4 -4 -4 -4 -4 -4 -4 -4 -4 -4 -5 -5 -5 -5 -5 -5 -5 -5 -5 -6 -6 -6 -6 -6 -6 -6 -6 -6 -6 -6 -6 -6 -7 -7 -7 -7 -7 -7 -7 -7 -7
1 1 0 0 -0 -0 -1 -1 -1 -1 -1 -1 -1 -2 -2 -2 -2 -3 -3 -3 -3 -3 -3 -3 -4 -4 -4 -4 -4 -4 -4 -4 -4 -4 -4 -4 -4 -5 -5 -5 -5 -5 -5 -5 -5 -5 -6 -6 -6 -6 -6 -6 -6 -6 -6 -7 -7 -7 -7 -7 -7 -7 -7 -7 -7 -7 -8 -8 -8
1 0 0 -0 -0 -1 -1 -1 -1 -1 -1 -1 -2 -2 -2 -2 -3 -3 -3 -3 -3 -3 -3 -4 -4 -4 -4 -4 -4 -4 -4 -4 -4 -4 -4 -5 -5 -5 -5 -5 -5 -5 -5 -5 -5 -6 -6 -6 -6 -7 -7 -7 -7 -7 -7 -7 -7 -7 -7 -7 -7 -7 -7 -7 -8 -8 -8 -8 -8
0 0 -0 -0 -1 -1 -1 -1 -1 -1 -1 -1 -2 -2 -2 -2 -3 -3 -3 -3 -3 -3 -4 -4 -4 -4 -4 -4 -4 -4 -4 -4 -4 -4 -5 -5 -5 -5 -5 -5 -5 -5 -5 -5 -6 -6 -6 -6 -6 -7 -7 -7 -7 -7 -7 -7 -7 -7 -7 -7 -7 -8 -8 -8 -8 -8 -8 -8 -8
0 0 -0 -0 -1 -1 -1 -1 -1 -1 -1 -2 -2 -2 -2 -2 -3 -3 -3 -3 -3 -3 -4 -4 -4 -4 -4 -4 -4 -4 -4 -4 -4 -5 -5 -5 -5 -5 -5 -5 -5 -5 -5 -6 -6 -6 -6 -6 -7 -7 -7 -7 -7 -7 -8 -8 -8 -8 -8 -8 -8 -8 -8 -8 -8 -8 -8 -9 -9
0 -0 -0 -0 -1 -1 -1 -1 -1 -1 -1 -2 -2 -2 -2 -2 -3 -3 -3 -3 -3 -4 -4 -4 -4 -4 -4 -4 -4 -4 -4 -4 -4 -5 -5 -5 -5 -5 -5 -5 -5 -5 -5 -6 -6 -6 -6 -7 -7 -7 -7 -7 -7 -8 -8 -8 -8 -8 -8 -8 -8 -8 -8 -8 -8 -8 -9 -9 -9
0 -0 -0 -0 -1 -1 -1 -1 -1 -1 -2 -2 -2 -2 -2 -2 -3 -3 -3 -3 -3 -4 -4 -4 -4 -4 -4 -4 -4 -4 -4 -4 -4 -5 -5 -5 -5 -5 -5 -5 -5 -5 -5 -6 -6 -6 -7 -7 -7 -7 -7 -7 -8 -8 -8 -8 -8 -8 -8 -8 -8 -8 -8 -8 -9 -9 -9 -9 -10
0 -0 -0 -0 -1 -1 -1 -1 -1 -1 -2 -2 -2 -2 -2 -2 -3 -3 -3 -3 -4 -4 -4 -4 -4 -4 -4 -4 -4 -4 -4 -4 -4 -5 -5 -5 -5 -5 -5 -5 -5 -5 -6 -6 -6 -7 -7 -7 -7 -7 -7 -8 -8 -8 -8 -8 -8 -8 -8 -8 -8 -9 -9 -9 -9 -9 -10 -10 -10
-0 -0 -0 -1 -1 -1 -1 -1 -1 -1 -2 -2 -2 -2 -2 -3 -3 -3 -3 -3 -4 -4 -4 -4 -4 -4 -4 -4 -4 -4 -4 -4 -4 -5 -5 -5 -5 -5 -5 -5 -5 -6 -6 -6 -7 -7 -7 -7 -7 -7 -8 -8 -8 -8 -8 -9 -9 -9 -9 -9 -9 -9 -9 -9 -10 -10 -10 -10 -10
-0 -0 -0 -1 -1 -1 -1 -1 -1 -2 -2 -2 -2 -2 -2 -3 -3 -3 -3 -3 -3 -4 -4 -4 -4 -4 -4 -4 -4 -4 -4 -4 -5 -5 -5 -5 -5 -6 -6 -6 -6 -6 -6 -7 -7 -7 -7 -7 -8 -8 -8 -8 -8 -8 -9 -9 -9 -9 -9 -9 -9 -9 -9 -10 -10 -10 -10 -10 -10
-0 -0 -1 -1 -1 -1 -1 -1 -2 -2 -2 -2 -2 -2 -2 -3 -3 -3 -3 -3 -4 -4 -4 -4 -4 -4 -4 -4 -4 -4 -5 -5 -5 -5 -5 -5 -6 -6 -6 -6 -6 -6 -7 -7 -7 -7 -8 -8 -8 -8 -8 -8 -8 -8 -9 -9 -10 -9 -9 -9 -10 -10 -10 -10 -10 -10 -11 -11 -11
-0 -1 -1 -1 -1 -1 -1 -2 -2 -2 -2 -2 -2 -2 -3 -3 -3 -3 -3 -4 -4 -4 -4 -4 -4 -4 -4 -4 -4 -5 -5 -5 -5 -5 -5 -6 -6 -6 -6 -6 -6 -6 -7 -7 -7 -8 -8 -8 -8 -8 -8 -8 -8 -9 -9 -10 -10 -10 -10 -10 -10 -10 -10 -10 -11 -11 -11 -11 -11
-0 -1 -1 -1 -1 -1 -2 -2 -2 -2 -2 -2 -2 -2 -3 -3 -3 -3 -3 -4 -4 -4 -4 -4 -4 -4 -4 -5 -5 -5 -5 -5 -5 -5 -6 -6 -6 -6 -6 -6 -6 -7 -7 -7 -7 -8 -8 -8 -8 -8 -8 -8 -8 -9 -9 -10 -10 -10 -10 -10 -10 -10 -11 -11 -11 -11 -12 -12 -12
-1 -1 -1 -1 -1 -1 -2 -2 -2 -2 -2 -2 -2 -3 -3 -3 -3 -3 -3 -4 -4 -4 -4 -4 -5 -5 -5 -5 -5 -5 -5 -5 -5 -5 -6 -6 -6 -6 -7 -7 -7 -7 -7 -7 -8 -8 -8 -8 -8 -8 -8 -8 -8 -9 -10 -10 -10 -10 -10 -10 -11 -11 -11 -11 -12 -12 -12 -12 -12
-1 -1 -1 -1 -1 -1 -2 -2 -2 -2 -2 -3 -3 -3 -3 -3 -3 -3 -4 -4 -4 -4 -4 -4 -5 -5 -5 -5 -5 -5 -5 -5 -5 -6 -6 -6 -6 -7 -7 -7 -7 -8 -8 -8 -8 -8 -8 -8 -8 -8 -8 -8 -8 -9 -10 -10 -10 -10 -11 -11 -11 -11 -12 -12 -12 -12 -12 -12 -12
-1 -1 -1 -1 -1 -1 -2 -2 -2 -2 -3 -3 -3 -3 -3 -3 -3 -4 -4 -4 -4 -4 -5 -5 -5 -5 -5 -5 -5 -5 -5 -5 -5 -6 -6 -6 -7 -7 -7 -7 -8 -8 -8 -8 -8 -8 -8 -8 -8 -8 -8 -8 -8 -9 -10 -10 -10 -11 -11 -11 -12 -12 -12 -12 -12 -12 -12 -12 -13
-1 -1 -1 -1 -1 -1 -2 -2 -2 -3 -3 -3 -3 -3 -3 -3 -4 -4 -4 -5 -5 -5 -5 -5 -5 -5 -5 -5 -5 -5 -5 -5 -6 -6 -6 -7 -7 -7 -7 -8 -8 -8 -8 -8 -8 -8 -8 -8 -8 -8 -8 -8 -9 -9 -10 -10 -10 -11 -11 -12 -12 -12 -12 -12 -12 -12 -12 -13 -13
-1 -1 -1 -1 -1 -1 -2 -2 -3 -3 -3 -3 -3 -3 -3 -4 -4 -4 -4 -5 -4 -4 -5 -5 -5 -5 -5 -5 -5 -6 -6 -6 -6 -6 -6 -7 -7 -7 -7 -7 -8 -8 -8 -8 -8 -8 -8 -8 -8 -8 -8 -8 -9 -9 -10 -10 -11 -11 -12 -12 -12 -12 -12 -12 -12 -12 -13 -13 -13
-0 -0 -0 -1 -1 -2 -2 -2 -3 -3 -3 -3 -3 -3 -4 -4 -4 -4 -5 -5 -4 -4 -5 -5 -5 -5 -5 -5 -5 -6 -6 -6 -6 -6 -6 -7 -7 -7 -7 -7 -8 -8 -8 -8 -8 -8 -8 -8 -8 -8 -8 -8 -9 -9 -10 -11 -11 -12 -12 -12 -12 -12 -12 -12 -13 -13 -13 -13 -13
-0 -0 -0 -1 -1 -1 -2 -2 -3 -3 -3 -3 -3 -4 -4 -4 -5 -5 -5 -5 -5 -5 -5 -5 -5 -5 -5 -5 -6 -6 -6 -7 -7 -7 -7 -7 -7 -7 -7 -7 -8 -8 -8 -8 -8 -8 -8 -8 -8 -8 -8 -8 -9 -9 -10 -11 -12 -12 -13 -12 -12 -12 -13 -13 -13 -13 -13 -13 -13
Height
1559 1559 1558 1558 1558 1557 1557 1557 1556 1556 1556 1556 1556 1555 1554 1554 1553 1552 1551 1551 1550 1549 1549 1548 1547 1546 1546 1545 1544 1543 1542 1541 1540 1539 1537 1537 1536 1535 1534 1533 1532 1531 1531 1530 1530 1529 1529 1528 1527 1527 1526 1525 1524 1523 1522 1521 1520 1520 1519 1519 1518 1517 1516 1515 1514 1513 1512 1511 1510
1558 1558 1557 1557 1556 1556 1556 1556 1555 1555 1555 1555 1554 1554 1553 1552 1552 1551 1550 1549 1549 1548 1547 1546 1546 1545 1544 1543 1542 1541 1541 1540 1539 1538 1536 1536 1535 1534 1533 1532 1531 1531 1530 1529 1529 1528 1528 1527 1526 1526 1525 1524 1524 1523 1522 1520 1519 1518 1518 1517 1517 1516 1515 1514 1513 1512 1511 1510 1509
1558 1557 1557 1557 1557 1556 1556 1556 1556 1555 1555 1554 1553 1552 1551 1551 1550 1550 1549 1548 1547 1547 1546 1546 1545 1544 1543 1542 1541 1540 1539 1539 1538 1537 1536 1535 1534 1533 1533 1532 1531 1530 1529 1528 1528 1527 1526 1526 1526 1525 1525 1524 1523 1522 1521 1520 1519 1518 1517 1516 1516 1515 1514 1512 1511 1511 1510 1508 1507
1557 1556 1556 1556 1556 1556 1555 1555 1555 1554 1553 1552 1551 1551 1550 1549 1549 1548 1547 1547 1546 1546 1545 1545 1544 1543 1542 1541 1540 1539 1538 1537 1536 1536 1535 1534 1534 1533 1532 1531 1531 1530 1529 1528 1527 1526 1525 1525 1525 1524 1524 1523 1522 1521 1520 1519 1518 1517 1516 1516 1515 1514 1512 1511 1510 1509 1508 1507 1506
1556 1556 1556 1555 1555 1554 1554 1554 1553 1552 1552 1551 1550 1549 1549 1548 1547 1547 1546 1546 1545 1544 1544 1543 1543 1542 1541 1540 1539 1538 1537 1536 1535 1535 1534 1534 1533 1532 1531 1530 1530 1529 1528 1527 1526 1525 1524 1524 1524 1524 1523 1522 1521 1520 1519 1518 1517 1516 1516 1515 1514 1513 1511 1510 1509 1508 1507 1506 1505
1556 1555 1555 1554 1553 1553 1552 1552 1551 1551 1550 1550 1549 1548 1548 1547 1546 1546 1545 1545 1544 1543 1542 1542 1541 1540 1540 1539 1538 1537 1536 1536 1535 1534 1533 1533 1532 1531 1530 1530 1529 1528 1527 1526 1526 1525 1524 1523 1523 1523 1522 1521 1520 1519 1518 1517 1516 1516 1515 1514 1513 1512 1511 1509 1508 1507 1506 1505 1504
1556 1555 1554 1554 1553 1552 1551 1551 1550 1550 1549 1549 1548 1547 1547 1546 1545 1545 1544 1543 1542 1542 1541 1541 1540 1539 1539 1538 1537 1536 1536 1535 1534 1533 1532 1531 1531 1530 1529 1529 1528 1527 1526 1526 1525 1524 1523 1522 1522 1522 1521 1520 1519 1518 1517 1516 1515 1514 1513 1512 1511 1511 1509 1508 1507 1506 1504 1503 1502
1555 1555 1554 1553 1552 1551 1551 1550 1550 1549 1549 1548 1547 1546 1546 1545 1544 1543 1542 1542 1541 1541 1540 1540 1539 1538 1537 1537 1536 1536 1535 1534 1533 1533 1532 1531 1530 1529 1528 1528 1527 1526 1526 1525 1524 1523 1522 1521 1521 1521 1520 1519 1518 1517 1516 1515 1514 1512 1511 1511 1510 1509 1508 1506 1505 1504 1503 1502 1501
1554 1554 1553 1552 1551 1550 1549 1549 1548 1548 1547 1547 1546 1545 1544 1544 1543 1542 1541 1541 1541 1540 1539 1539 1538 1537 1536 1536 1535 1535 1534 1533 1533 1531 1531 1530 1529 1528 1528 1527 1526 1526 1525 1523 1522 1522 1521 1521 1520 1519 1519 1518 1517 1516 1515 1513 1512 1511 1510 1509 1508 1507 1506 1505 1504 1503 1502 1501 1499
1554 1554 1553 1552 1550 1549 1548 1547 1547 1546 1546 1545 1544 1544 1543 1542 1541 1541 1541 1540 1539 1539 1538 1538 1537 1536 1536 1535 1534 1534 1533 1532 1531 1530 1529 1529 1528 1527 1526 1526 1525 1524 1523 1522 1521 1521 1520 1520 1519 1518 1517 1516 1516 1514 1513 1512 1511 1510 1509 1508 1507 1506 1505 1504 1503 1502 1501 1499 1498
1554 1553 1553 1551 1550 1548 1547 1546 1546 1545 1545 1544 1543 1542 1541 1541 1540 1540 1539 1539 1538 1537 1537 1536 1536 1535 1535 1534 1533 1532 1531 1531 1530 1529 1528 1528 1527 1526 1525 1524 1523 1522 1522 1521 1521 1520 1520 1519 1518 1517 1516 1516 1514 1513 1512 1511 1510 1509 1507 1506 1505 1504 1503 1502 1501 1500 1499 1497 1496
1553 1553 1552 1551 1549 1548 1547 1546 1545 1545 1544 1543 1542 1541 1541 1540 1539 1538 1538 1537 1537 1536 1536 1535 1535 1534 1534 1533 1532 1531 1531 1530 1529 1528 1527 1526 1526 1525 1524 1523 1522 1521 1521 1521 1520 1519 1519 1518 1517 1516 1515 1514 1513 1512 1511 1510 1508 1507 1506 1505 1504 1502 1501 1500 1499 1498 1496 1495 1494
1552 1552 1551 1550 1548 1547 1546 1545 1545 1544 1543 1542 1541 1541 1540 1539 1538 1537 1537 1536 1536 1536 1535 1534 1534 1533 1532 1532 1531 1530 1529 1528 1527 1527 1526 1525 1524 1523 1523 1522 1521 1521 1520 1520 1519 1518 1517 1516 1516 1514 1513 1512 1511 1510 1509 1508 1507 1506 1504 1503 1502 1501 1499 1498 1496 1495 1494 1493 1491
1551 1551 1550 1549 1547 1546 1545 1545 1544 1543 1542 1541 1540 1539 1538 1538 1537 1536 1536 1535 1535 1535 1534 1533 1533 1532 1531 1531 1530 1529 1528 1527 1526 1525 1524 1524 1523 1523 1522 1521 1521 1520 1519 1518 1517 1517 1516 1515 1514 1513 1512 1511 1510 1509 1507 1506 1505 1504 1502 1501 1500 1499 1497 1496 1495 1493 1492 1491 1490
1550 1550 1549 1548 1546 1545 1545 1544 1543 1542 1541 1540 1539 1538 1537 1536 1536 1535 1535 1534 1534 1533 1533 1532 1532 1531 1530 1529 1528 1527 1526 1526 1525 1524 1524 1523 1523 1522 1521 1521 1520 1519 1518 1517 1516 1516 1515 1514 1513 1511 1511 1509 1508 1507 1506 1505 1503 1502 1501 1499 1498 1497 1496 1494 1493 1491 1490 1489 1487
1549 1549 1548 1546 1546 1545 1544 1543 1542 1541 1540 1539 1538 1537 1536 1536 1535 1534 1533 1533 1533 1532 1532 1531 1531 1530 1529 1528 1527 1526 1525 1524 1524 1524 1523 1523 1522 1521 1521 1520 1519 1518 1517 1516 1515 1514 1513 1512 1511 1510 1509 1508 1506 1505 1504 1503 1501 1500 1499 1497 1496 1495 1494 1492 1491 1490 1488 1487 1486
1548 1547 1546 1545 1544 1544 1543 1542 1541 1540 1539 1538 1537 1536 1535 1535 1534 1533 1532 1532 1531 1531 1531 1530 1529 1529 1528 1527 1526 1525 1525 1524 1524 1523 1523 1522 1521 1520 1519 1518 1518 1517 1516 1515 1514 1513 1512 1511 1510 1509 1508 1506 1505 1504 1502 1501 1500 1498 1497 1496 1494 1493 1492 1491 1489 1488 1486 1485 1484
1547 1546 1545 1544 1543 1542 1541 1541 1540 1539 1538 1537 1536 1535 1534 1533 1533 1532 1531 1530 1530 1530 1529 1528 1528 1527 1527 1526 1525 1525 1524 1524 1523 1522 1521 1521 1520 1519 1518 1517 1516 1516 1515 1514 1513 1512 1511 1510 1509 1508 1506 1505 1504 1502 1501 1500 1498 1497 1496 1494 1493 1491 1490 1489 1487 1486 1485 1483 1482
1546 1545 1544 1543 1543 1542 1541 1540 1539 1538 1537 1536 1535 1534 1533 1532 1531 1531 1530 1529 1529 1528 1528 1527 1526 1526 1526 1525 1524 1524 1523 1523 1522 1521 1520 1519 1518 1518 1517 1516 1515 1514 1513 1512 1511 1511 1510 1508 1507 1506 1505 1504 1502 1501 1499 1498 1496 1495 1494 1492 1491 1490 1488 1487 1486 1484 1483 1481 1480
1544 1544 1543 1542 1542 1541 1540 1539 1538 1537 1536 1535 1533 1532 1531 1531 1530 1529 1529 1528 1527 1527 1526 1526 1525 1525 1525 1524 1523 1523 1522 1521 1521 1520 1519 1518 1517 1517 1516 1515 1514 1513 1512 1511 1510 1509 1508 1507 1506 1505 1503 1502 1501 1499 1498 1496 1495 1493 1492 1491 1489 1488 1486 1486 1484 1483 1481 1480 1479
1543 1542 1542 1541 1541 1540 1539 1538 1536 1535 1534 1533 1532 1531 1531 1530 1529 1528 1528 1527 1526 1526 1525 1525 1524 1524 1524 1523 1522 1521 1521 1520 1519 1518 1518 1517 1516 1516 1514 1513 1512 1511 1511 1510 1509 1507 1506 1506 1504 1503 1501 1500 1499 1497 1496 1495 1493 1492 1490 1489 1487 1486 1485 1484 1482 1481 1480 1479 1477
1541 1541 1541 1540 1539 1538 1537 1536 1535 1534 1533 1532 1531 1530 1529 1529 1528 1527 1526 1526 1525 1525 1524 1524 1523 1523 1522 1522 1521 1520 1519 1519 1518 1517 1516 1516 1515 1514 1513 1512 1511 1510 1509 1508 1507 1506 1505 1503 1502 1501 1500 1499 1497 1496 1495 1493 1492 1490 1489 1487 1486 1484 1483 1482 1481 1479 1478 1477 1475
1541 1540 1540 1539 1538 1537 1536 1535 1534 1533 1532 1531 1530 1529 1528 1527 1527 1526 1525 1525 1524 1524 1523 1523 1522 1522 1521 1520 1520 1519 1518 1517 1517 1516 1516 1515 1514 1513 1511 1511 1510 1509 1508 1507 1506 1504 1502 1501 1500 1499 1498 1497 1496 1494 1493 1491 1490 1488 1487 1485 1484 1482 1481 1480 1479 1477 1476 1475 1473
1539 1539 1538 1537 1536 1535 1534 1533 1532 1531 1531 1530 1529 1528 1527 1526 1526 1525 1524 1524 1523 1523 1522 1521 1521 1520 1520 1519 1518 1518 1517 1516 1516 1515 1514 1513 1512 1511 1510 1509 1508 1507 1506 1505 1503 1502 1501 1499 1498 1497 1496 1496 1494 1492 1491 1490 1488 1486 1485 1483 1482 1480 1479 1478 1476 1475 1474 1472 1471
1538 1537 1536 1535 1534 1533 1532 1532 1531 1530 1529 1528 1528 1527 1526 1526 1525 1524 1524 1523 1522 1522 1521 1520 1520 1519 1518 1517 1517 1516 1516 1515 1514 1513 1512 1512 1511 1510 1509 1508 1507 1506 1505 1503 1501 1499 1498 1497 1496 1495 1494 1493 1492 1491 1489 1488 1486 1485 1483 1481 1480 1478 1477 1475 1474 1473 1471 1470 1469
1536 1535 1534 1534 1533 1532 1531 1530 1530 1529 1528 1527 1526 1526 1525 1525 1524 1523 1522 1522 1521 1521 1520 1519 1518 1517 1517 1516 1516 1515 1515 1514 1513 1512 1511 1510 1509 1508 1508 1507 1506 1505 1503 1501 1499 1497 1496 1495 1494 1493 1492 1491 1490 1489 1487 1486 1484 1483 1481 1480 1478 1476 1475 1473 1472 1471 1469 1468 1466
1535 1534 1533 1532 1531 1531 1530 1529 1528 1527 1526 1526 1525 1525 1524 1524 1523 1522 1521 1521 1520 1519 1518 1518 1517 1516 1516 1515 1514 1514 1513 1513 1512 1511 1510 1509 1508 1507 1506 1506 1505 1503 1501 1499 1497 1496 1495 1494 1492 1491 1490 1489 1488 1486 1485 1484 1482 1481 1479 1477 1476 1475 1473 1472 1470 1469 1467 1466 1464
1533 1533 1532 1531 1530 1529 1528 1527 1526 1526 1525 1524 1524 1523 1523 1522 1521 1521 1520 1520 1519 1518 1517 1517 1516 1516 1515 1514 1513 1513 1512 1511 1511 1510 1509 1508 1507 1506 1505 1504 1503 1502 1499 1497 1496 1494 1493 1492 1491 1489 1488 1487 1486 1485 1483 1482 1480 1479 1477 1476 1474 1473 1471 1470 1468 1466 1465 1463 1462
1532 1531 1531 1530 1529 1528 1527 1526 1525 1524 1524 1523 1522 1522 1521 1521 1520 1519 1519 1518 1517 1517 1516 1516 1515 1514 1514 1513 1512 1511 1511 1510 1510 1509 1508 1507 1506 1505 1504 1503 1502 1501 1498 1495 1494 1493 1491 1490 1489 1487 1486 1485 1484 1482 1481 1480 1478 1477 1476 1474 1473 1471 1470 1468 1466 1465 1463 1461 1460
1531 1531 1530 1529 1527 1526 1526 1525 1524 1523 1522 1521 1521 1520 1519 1519 1518 1518 1517 1517 1516 1516 1516 1515 1514 1513 1512 1512 1511 1511 1510 1509 1508 1507 1506 1505 1504 1503 1502 1501 1501 1499 1496 1493 1492 1491 1490 1488 1487 1485 1484 1483 1482 1481 1479 1478 1476 1475 1474 1472 1471 1469 1468 1466 1464 1463 1461 1460 1458
1531 1530 1529 1528 1527 1526 1524 1523 1522 1521 1520 1519 1519 1518 1518 1517 1517 1517 1516 1516 1516 1515 1514 1513 1512 1512 1511 1511 1510 1509 1509 1508 1507 1506 1505 1504 1503 1502 1501 1500 1499 1497 1494 1492 1491 1490 1488 1486 1485 1483 1482 1481 1479 1478 1477 1476 1474 1473 1471 1470 1469 1467 1466 1464 1462 1461 1460 1458 1457
1530 1529 1528 1527 1526 1525 1524 1522 1521 1520 1518 1517 1516 1516 1516 1516 1516 1516 1515 1515 1514 1513 1512 1512 1511 1511 1510 1509 1509 1508 1507 1506 1506 1505 1504 1502 1501 1500 1499 1499 1498 1495 1492 1491 1489 1488 1487 1485 1483 1482 1480 1478 1477 1476 1475 1473 1472 1471 1470 1468 1467 1466 1464 1462 1461 1459 1458 1456 1455
1529 1528 1527 1526 1526 1525 1523 1522 1520 1519 1517 1516 1515 1514 1514 1514 1514 1514 1514 1513 1513 1512 1511 1511 1510 1509 1509 1508 1507 1506 1506 1505 1504 1503 1502 1501 1500 1499 1498 1497 1497 1494 1491 1489 1488 1487 1485 1484 1482 1480 1479 1477 1476 1474 1473 1472 1471 1470 1468 1467 1465 1464 1462 1461 1459 1457 1456 1455 1453
1527 1527 1526 1526 1525 1524 1523 1521 1520 1518 1516 1515 1514 1513 1512 1512 1513 1513 1512 1512 1511 1511 1510 1509 1508 1508 1507 1506 1506 1505 1504 1503 1502 1501 1501 1500 1499 1498 1497 1496 1496 1492 1489 1488 1487 1485 1484 1482 1481 1479 1477 1476 1474 1473 1472 1471 1469 1468 1466 1465 1463 1462 1460 1458 1457 1456 1454 1453 1452
1526 1525 1525 1524 1523 1523 1522 1521 1520 1518 1516 1514 1513 1512 1512 1511 1511 1511 1511 1511 1510 1509 1508 1507 1507 1506 1506 1505 1505 1504 1503 1501 1501 1500 1499 1498 1497 1496 1495 1495 1494 1491 1487 1486 1485 1484 1482 1481 1479 1477 1476 1474 1473 1471 1471 1469 1468 1466 1464 1462 1461 1459 1458 1456 1455 1454 1452 1451 1451
1525 1524 1523 1522 1522 1521 1521 1520 1519 1517 1516 1514 1513 1512 1511 1511 1511 1511 1510 1509 1508 1507 1507 1506 1506 1505 1505 1504 1504 1502 1501 1500 1499 1498 1497 1496 1495 1494 1494 1493 1492 1489 1486 1485 1484 1483 1481 1479 1477 1476 1474 1473 1471 1470 1469 1467 1466 1464 1462 1460 1459 1457 1456 1454 1453 1452 1451 1450 1449
1523 1522 1521 1521 1520 1520 1519 1519 1517 1516 1515 1514 1512 1511 1511 1510 1510 1509 1508 1507 1506 1506 1506 1505 1505 1504 1504 1503 1502 1501 1500 1499 1498 1497 1496 1494 1493 1493 1492 1491 1490 1488 1485 1483 1482 1481 1480 1478 1476 1474 1473 1471 1470 1468 1467 1465 1463 1461 1460 1458 1457 1456 1454 1453 1452 1451 1450 1449 1447
1521 1521 1520 1519 1518 1518 1517 1517 1516 1515 1514 1513 1512 1511 1510 1509 1508 1508 1507 1506 1506 1505 1504 1504 1504 1503 1503 1501 1501 1500 1498 1497 1496 1495 1494 1493 1492 1491 1490 1489 1488 1486 1484 1482 1481 1480 1478 1476 1475 1473 1471 1470 1468 1466 1465 1463 1461 1460 1458 1456 1455 1454 1453 1452 1451 1450 1448 1447 1446
1520 1519 1518 1517 1517 1516 1516 1516 1515 1514 1513 1512 1511 1510 1509 1508 1507 1506 1506 1505 1504 1504 1503 1503 1503 1502 1501 1500 1499 1498 1497 1496 1494 1493 1492 1491 1490 1489 1488 1487 1486 1485 1483 1481 1480 1478 1477 1475 1473 1471 1470 1468 1466 1465 1463 1461 1459 1458 1456 1455 1454 1453 1452 1451 1450 1449 1447 1446 1445
1518 1517 1516 1516 1515 1515 1515 1514 1514 1513 1512 1511 1510 1509 1508 1507 1506 1505 1504 1503 1503 1502 1502 1502 1501 1501 1500 1499 1498 1497 1496 1495 1493 1491 1491 1490 1489 1487 1486 1486 1485 1484 1482 1480 1479 1477 1476 1474 1472 1470 1468 1467 1465 1463 1461 1460 1458 1457 1456 1454 1453 1452 1451 1450 1449 1448 1446 1445 1444
1516 1515 1515 1514 1514 1513 1513 1512 1512 1511 1511 1510 1509 1508 1506 1505 1504 1503 1503 1502 1501 1501 1501 1501 1500 1499 1498 1497 1496 1496 1495 1494 1492 1491 1489 1488 1487 1486 1485 1484 1484 1483 1481 1480 1478 1476 1475 1473 1471 1469 1467 1466 1464 1462 1461 1459 1457 1456 1455 1454 1453 1451 1450 1449 1448 1446 1445 1444 1443
Wind_Speed
9 10 11 13 14 14 14 15 16 16 15 13 12 12 12 12 12 12 12 13 12 12 11 11 11 11 12 12 13 14 14 14 15 15 16 15 15 14 13 12 12 11 10 9 9 7 7 7 7 6 7 8 8 8 10 13 15 14 12 10 10 11 11 11 12 12 13 13 13
10 12 13 14 14 14 14 14 14 14 13 12 11 11 12 13 13 12 12 12 12 12 12 11 11 12 12 13 14 14 14 14 14 14 14 13 13 12 11 9 10 11 11 10 8 7 7 8 7 7 8 8 9 9 10 12 14 13 11 11 10 11 11 11 12 12 13 13 14
11 12 12 12 11 11 11 10 9 9 10 11 12 12 13 14 14 13 13 13 13 12 12 11 11 12 13 13 14 15 15 15 14 14 12 10 10 9 9 8 9 10 10 10 9 9 9 9 8 8 8 9 10 10 10 10 11 11 11 11 11 11 11 11 12 12 13 13 14
11 11 11 11 11 11 11 10 10 11 12 14 14 14 14 15 14 14 13 13 13 12 12 11 11 11 13 14 15 15 15 15 15 14 11 9 8 8 8 9 9 10 10 10 10 10 11 10 9 9 10 10 11 11 11 11 11 12 12 12 12 12 12 12 12 13 13 14 14
12 12 12 13 13 13 12 12 13 14 15 15 15 15 15 15 14 14 13 12 12 12 12 12 11 12 13 14 15 14 14 14 14 13 10 8 8 8 9 9 9 10 10 10 11 11 12 11 10 10 10 11 11 12 12 12 12 12 13 13 13 13 13 13 13 13 13 14 14
11 12 13 13 14 13 13 14 14 14 15 15 14 14 14 14 14 13 12 12 12 13 13 13 13 13 14 14 14 14 12 11 11 10 10 9 9 9 9 9 10 10 10 10 11 11 12 12 11 10 10 11 12 12 12 12 12 13 14 14 14 14 14 14 14 14 14 14 15
10 11 12 13 13 13 13 14 14 13 13 13 14 14 14 14 14 13 13 13 13 13 13 13 13 13 13 13 13 13 12 10 9 10 10 10 10 10 10 9 9 9 10 11 11 11 12 12 11 11 11 12 12 12 12 13 14 15 15 15 15 14 14 15 16 16 16 16 16
10 11 11 12 12 13 13 13 13 12 12 12 14 15 15 14 14 14 13 13 12 12 13 13 13 13 13 13 12 12 11 10 10 10 10 10 10 10 10 10 9 9 10 11 11 12 12 12 12 12 12 13 13 13 14 16 16 17 17 17 16 15 15 16 17 17 17 17 17
10 11 11 12 13 13 14 14 14 14 13 13 15 16 15 15 14 14 13 13 13 12 12 12 13 13 13 13 12 12 11 10 10 11 11 10 10 10 10 9 9 9 10 11 11 12 12 12 12 13 13 14 14 15 16 17 17 18 18 18 18 17 17 17 17 17 17 17 18
9 9 10 12 14 14 14 15 15 15 15 15 16 16 16 15 14 14 13 13 13 13 12 12 12 13 12 12 12 12 12 12 12 12 11 10 10 10 10 10 10 10 11 11 11 12 12 12 13 13 14 14 15 15 16 17 17 18 18 18 19 19 19 18 17 17 17 17 18
9 9 9 11 13 14 13 13 13 13 14 15 15 16 15 15 14 14 13 13 13 12 12 12 13 12 11 11 11 12 12 13 13 12 11 10 10 11 11 11 11 11 11 11 12 12 12 12 13 13 14 14 15 15 16 17 17 18 19 19 19 20 20 19 18 18 19 19 20
9 9 9 11 13 13 13 11 10 11 12 13 14 14 14 14 14 14 14 13 12 12 12 12 13 12 11 11 12 13 13 13 13 13 12 11 11 11 12 12 12 12 12 12 12 12 12 13 13 14 15 15 15 16 16 17 18 19 19 20 20 20 20 20 20 20 20 20 21
9 9 9 11 13 13 12 10 9 9 11 12 13 13 12 13 14 14 14 13 12 11 10 12 12 13 12 12 12 13 13 13 13 13 13 12 12 12 12 12 12 12 12 12 12 12 13 14 14 15 16 16 16 17 17 18 19 19 20 21 21 21 21 21 21 21 21 21 21
10 10 10 11 12 12 11 10 9 9 11 12 12 12 12 13 14 14 13 12 11 10 10 10 11 12 13 13 13 14 14 14 14 14 13 12 12 12 12 12 11 11 12 12 12 13 14 14 15 16 17 17 17 18 18 19 19 20 20 21 21 22 22 22 21 21 21 21 21
10 11 11 12 12 11 10 9 9 9 10 11 11 12 12 12 13 14 13 12 11 11 10 10 10 11 12 13 14 14 15 15 14 13 12 11 11 11 12 12 12 12 12 12 13 13 14 15 16 16 17 18 18 19 19 19 19 20 21 21 21 22 22 22 22 21 21 21 21
10 11 12 13 11 9 9 9 9 9 10 10 11 11 11 11 12 14 14 12 11 10 10 10 10 10 11 12 13 14 15 14 12 11 11 11 11 12 12 13 13 13 13 13 13 14 14 15 16 17 17 18 18 19 19 19 20 21 21 21 21 22 22 22 22 21 21 21 22
9 10 12 12 10 9 8 8 8 8 9 9 10 11 11 11 12 13 13 13 11 10 11 11 11 11 11 11 12 13 13 12 10 10 11 12 12 12 13 13 13 13 14 14 14 14 15 16 16 17 17 18 19 19 20 20 21 21 21 22 22 22 22 22 22 21 21 22 22
7 8 10 9 8 8 8 8 8 8 9 9 10 11 11 12 12 12 12 12 12 12 12 12 12 12 12 12 11 11 11 10 10 11 11 12 13 13 13 13 13 14 14 15 15 15 15 16 16 17 17 18 19 19 20 21 21 21 22 22 22 23 22 22 21 21 21 22 22
6 7 7 7 7 7 8 8 8 8 9 10 11 11 12 13 13 12 11 11 12 13 13 12 12 12 12 11 11 11 10 11 11 12 12 13 13 13 13 14 14 14 15 15 15 15 15 16 17 17 18 19 19 20 20 21 21 22 22 22 23 22 22 21 21 21 22 22 23
7 8 8 7 8 8 8 9 9 9 10 11 12 12 12 13 13 12 11 10 12 13 13 13 12 11 11 10 10 11 11 11 12 12 13 13 13 13 14 14 14 15 15 15 15 15 16 16 17 18 19 20 20 21 21 21 21 22 23 23 22 22 22 21 21 22 22 23 23
7 8 8 8 8 8 9 9 10 10 11 11 12 12 12 12 12 11 11 12 13 13 13 12 12 11 11 11 11 11 12 12 12 13 13 13 13 13 14 14 15 15 15 15 15 15 16 16 18 19 19 20 20 21 21 22 22 23 23 23 23 22 22 22 22 23 23 23 23
7 8 8 9 9 9 10 10 11 11 11 11 12 12 12 12 11 11 12 13 13 13 12 11 11 11 11 12 12 13 13 13 12 13 13 13 14 14 14 15 15 15 15 15 15 16 17 18 18 19 19 20 20 20 21 22 23 23 24 24 24 23 23 23 23 23 23 23 23
8 8 9 10 10 11 11 11 10 11 11 12 12 12 11 11 11 12 12 13 12 12 11 11 11 12 12 12 13 13 13 13 13 12 13 13 14 15 15 15 16 16 15 15 16 18 19 20 20 20 20 20 20 21 21 22 23 23 24 24 24 24 23 23 23 23 23 23 23
8 9 10 10 11 11 11 11 11 11 12 12 11 11 11 11 11 12 12 12 11 11 11 12 12 12 13 13 13 14 13 13 13 13 14 14 15 15 16 16 16 16 15 16 17 20 22 23 23 22 21 21 21 21 22 23 23 23 24 24 24 24 24 24 23 23 23 23 23
9 10 10 11 11 11 11 11 11 12 12 11 11 11 11 11 11 11 12 11 11 12 12 13 13 13 14 14 14 13 13 13 13 14 15 15 16 16 16 16 16 16 15 17 20 22 23 23 24 24 23 22 22 23 23 23 23 23 23 24 24 24 24 24 23 23 23 22 22
10 10 11 11 11 11 11 11 11 12 12 12 11 11 10 10 11 11 11 11 12 12 13 13 13 14 15 14 14 13 13 13 14 14 15 16 16 17 17 17 17 16 17 19 22 23 24 24 24 25 25 25 25 24 24 24 24 24 23 23 23 23 23 23 23 23 23 23 23
10 10 10 11 11 11 11 11 12 12 12 12 11 11 10 11 11 11 11 11 11 12 13 13 13 14 15 14 13 13 13 13 14 14 15 17 17 17 18 17 17 17 18 21 23 24 25 25 25 25 26 27 27 27 26 24 24 23 23 23 22 22 22 23 23 23 23 24 24
10 10 11 11 11 12 12 12 12 12 11 11 11 11 11 12 13 13 12 12 12 12 12 11 11 12 12 12 12 13 14 14 14 15 16 17 17 18 18 18 17 17 19 22 24 25 25 26 26 27 27 28 29 29 28 25 24 23 22 22 22 22 22 22 23 24 24 24 24
11 11 12 12 12 13 13 12 12 11 11 11 11 12 13 14 14 14 13 12 12 11 11 11 11 11 12 12 13 14 14 14 14 15 16 17 18 19 18 18 16 16 18 22 24 25 25 26 27 28 28 29 30 30 29 26 23 22 22 22 22 22 22 23 23 24 24 24 24
12 12 13 13 14 14 13 12 12 11 11 12 13 14 15 15 14 13 12 12 11 11 11 11 12 12 13 14 14 14 14 14 15 16 17 19 19 19 18 18 16 16 18 22 24 25 26 27 28 29 30 30 31 31 28 25 23 22 22 22 22 22 23 23 23 24 24 23 23
13 13 14 14 14 14 14 13 12 13 13 14 15 15 15 14 13 12 12 11 11 11 12 12 12 13 14 14 14 14 14 14 15 17 18 18 18 18 18 17 16 16 18 22 24 25 26 27 28 29 30 31 31 31 29 25 23 23 22 22 22 23 23 23 23 23 23 23 22
14 14 15 15 15 15 14 14 14 15 15 16 16 16 15 14 12 12 12 11 11 12 12 12 13 14 14 14 14 14 14 15 17 18 18 19 19 18 17 16 15 16 20 23 24 25 26 27 28 29 30 31 32 31 29 25 23 22 22 22 22 22 22 22 22 22 22 22 21
15 15 15 15 16 16 16 16 17 17 17 17 17 17 16 14 12 12 11 11 11 11 12 12 13 13 14 14 13 14 15 16 18 19 20 21 19 18 16 15 14 17 21 23 24 25 26 27 28 29 30 30 31 30 27 24 23 22 22 22 22 22 22 22 22 22 22 21 21
16 16 16 17 17 17 16 16 17 18 19 18 18 17 15 13 12 11 10 10 11 12 13 14 13 13 13 13 12 13 15 18 20 22 22 21 19 17 15 14 13 16 21 23 25 25 26 27 28 28 29 29 30 28 25 22 21 21 21 22 23 23 23 22 22 22 21 20 19
16 17 18 18 18 17 16 15 16 18 19 19 17 15 13 11 10 10 10 11 13 15 15 15 14 13 13 11 11 12 15 20 22 23 23 22 20 17 15 13 13 16 21 24 25 25 26 26 27 28 28 28 28 26 23 21 21 21 23 23 24 23 22 21 21 20 19 19 18
16 18 19 20 19 18 17 16 16 17 18 17 16 13 11 10 9 10 11 12 15 16 16 14 13 12 11 11 11 14 18 21 23 23 23 23 21 18 15 13 12 17 22 25 25 25 25 26 26 27 28 28 28 26 23 21 21 22 23 23 23 22 21 20 20 19 19 18 18
17 19 20 20 20 18 17 16 16 16 15 15 14 12 10 10 9 9 11 13 15 15 14 12 11 10 10 10 13 17 20 22 23 23 22 21 19 17 16 15 13 17 22 25 24 24 24 25 26 27 27 28 27 25 23 22 22 23 22 22 21 20 20 19 19 19 18 18 19
19 19 20 20 20 19 17 16 15 15 14 14 12 11 10 9 9 9 11 14 15 15 14 11 10 9 10 14 17 20 22 23 24 24 22 19 19 19 19 18 16 19 22 24 24 24 24 25 26 26 27 28 27 26 24 24 23 22 21 20 20 19 19 18 18 18 18 19 20
19 19 19 20 20 19 17 15 15 15 14 14 12 10 9 9 8 9 11 14 15 14 13 11 9 9 12 16 18 19 20 22 24 24 22 20 20 21 20 19 19 20 22 23 23 23 24 24 25 26 27 28 27 26 25 24 22 21 20 19 19 19 18 17 17 18 18 19 20
19 19 19 19 19 18 17 15 14 14 14 13 12 10 9 9 9 11 13 14 14 13 12 10 9 11 15 18 18 17 17 19 21 23 22 21 21 21 21 20 19 20 21 22 23 23 23 24 25 26 27 27 27 26 25 23 22 20 19 18 18 18 18 17 17 18 19 19 19
19 19 19 19 19 18 17 15 14 13 13 12 11 10 9 10 11 12 13 14 13 13 12 11 11 14 17 19 18 17 17 17 18 20 21 21 21 21 20 20 19 19 20 21 22 22 23 24 25 26 26 26 26 25 23 22 20 19 18 18 18 18 18 18 18 18 18 18 17
Wind_Direction
24 20 17 15 13 12 10 7 7 9 10 8 3 360 358 359 356 353 352 353 353 351 349 347 346 344 343 344 345 345 345 346 346 346 347 347 346 344 343 341 341 342 342 339 338 333 326 323 322 319 316 318 322 321 319 321 325 327 325 321 317 316 316 316 316 317 317 316 314
25 21 18 17 16 16 15 12 10 9 8 5 1 359 358 358 358 355 353 351 351 350 349 347 344 343 342 344 345 346 346 347 347 347 347 345 343 343 343 337 335 337 339 338 334 327 321 320 319 316 314 316 318 317 316 318 324 324 321 317 314 313 314 314 314 315 316 315 314
30 29 28 25 23 21 20 19 15 8 3 1 360 359 359 359 359 357 353 351 350 349 348 346 343 340 340 342 344 346 346 347 349 349 348 343 337 336 335 332 331 332 333 333 328 322 319 320 319 316 313 314 314 314 313 314 317 318 316 314 312 311 311 311 313 315 315 315 314
27 28 28 26 23 21 18 15 11 6 3 2 2 1 0 359 358 356 354 351 348 346 345 344 340 338 339 341 344 346 347 347 350 351 348 340 330 327 327 328 329 328 325 322 320 319 320 322 320 315 311 311 311 311 310 311 313 315 314 312 311 310 309 309 312 313 314 313 313
23 22 20 18 17 15 13 9 7 6 6 6 5 2 359 358 356 355 353 349 345 341 340 339 339 338 339 342 346 348 349 347 348 348 343 334 328 326 324 324 326 324 320 317 316 318 320 323 320 312 307 308 309 308 308 310 313 314 313 312 310 308 307 308 310 312 312 311 312
22 19 16 15 14 13 11 8 7 6 6 7 6 2 358 355 354 353 351 346 341 338 338 338 339 340 341 344 347 350 350 346 342 340 337 332 329 326 324 322 320 319 317 315 313 313 316 319 315 309 306 307 307 307 307 309 312 313 313 312 310 307 306 306 308 310 311 311 311
22 19 16 14 14 14 13 11 9 8 7 6 3 360 357 354 352 350 348 345 342 339 338 338 339 341 343 345 346 348 348 344 337 334 335 333 328 326 324 320 316 314 312 310 309 309 310 314 313 309 305 306 306 306 305 307 308 310 310 311 308 306 305 305 307 309 311 311 310
16 15 14 13 12 12 12 13 13 11 7 2 359 357 356 354 351 349 348 346 342 338 336 336 337 339 342 345 345 345 345 341 335 333 333 331 326 322 321 319 311 306 305 304 306 307 308 309 310 307 304 305 305 304 304 304 305 306 308 309 307 305 303 304 306 308 309 308 308
10 7 7 8 8 7 8 9 10 10 7 2 359 357 356 354 353 351 348 343 338 335 334 334 336 339 342 344 343 343 341 338 333 332 333 331 327 322 318 314 309 305 302 302 306 309 310 309 307 305 304 304 304 304 303 304 304 305 306 308 306 304 303 302 304 305 305 304 304
8 5 3 3 4 5 6 6 7 8 6 2 359 357 356 355 354 351 347 340 336 335 334 334 336 340 342 342 341 339 338 336 335 335 333 330 326 321 316 313 310 308 308 309 311 311 310 307 305 304 304 304 304 304 304 304 304 304 305 305 304 304 303 301 301 301 301 302 302
4 2 1 1 3 5 6 7 6 6 4 1 358 356 356 355 353 349 345 340 338 336 334 334 337 339 341 339 337 336 336 336 336 335 333 328 323 319 317 317 315 316 316 315 314 311 308 305 303 303 303 304 304 304 303 304 304 304 303 302 302 302 302 300 299 299 299 300 300
359 358 358 360 2 5 8 9 6 2 0 359 358 356 354 351 349 347 344 342 341 338 334 333 335 338 339 336 336 336 337 336 335 334 331 325 322 320 321 323 322 321 319 316 312 309 306 305 304 304 304 305 304 304 303 304 304 304 303 302 302 301 300 299 298 298 298 298 299
355 354 355 357 0 4 8 8 4 359 356 356 357 355 350 347 346 346 345 343 341 338 333 332 334 336 336 336 336 336 337 336 335 332 330 327 325 323 322 322 319 316 313 311 308 306 305 304 304 304 305 305 305 304 304 304 305 304 303 302 301 300 299 298 298 298 298 298 298
350 351 352 354 360 3 6 5 1 355 352 354 354 352 348 345 345 345 344 342 339 335 332 332 332 332 333 335 336 337 337 337 336 335 332 328 324 321 318 315 311 308 307 306 305 305 305 304 305 305 306 306 305 305 304 305 305 304 303 302 302 301 300 299 299 298 298 298 298
345 347 350 354 359 1 2 0 358 353 350 350 350 349 348 344 342 342 342 340 336 333 332 331 329 328 331 334 336 338 339 340 338 334 329 322 318 315 312 310 308 307 305 305 305 305 305 305 305 306 306 306 306 305 305 305 304 304 303 303 303 303 302 301 299 298 297 297 298
340 344 349 354 357 358 356 353 352 350 348 345 345 346 346 342 339 338 339 338 335 332 329 329 328 328 328 331 335 338 340 340 334 327 320 315 313 311 309 309 308 307 305 305 305 305 306 306 306 306 306 306 306 305 305 304 304 304 305 305 305 304 303 301 299 298 297 297 297
335 341 347 351 352 352 349 346 344 344 342 339 340 342 342 339 336 335 336 336 334 329 326 326 328 329 328 329 333 337 338 334 326 319 316 314 313 311 309 308 308 307 306 306 306 306 306 307 306 306 306 306 306 306 305 305 305 306 306 306 306 305 303 301 299 297 296 296 296
324 334 342 345 343 341 339 339 337 336 334 334 335 336 337 337 335 333 332 332 331 329 326 326 328 329 331 332 333 334 331 326 321 318 316 316 315 312 310 308 307 307 307 307 306 306 307 307 307 307 307 308 308 307 307 307 306 306 306 306 306 305 304 302 300 298 297 297 297
316 327 335 337 332 326 324 328 330 328 327 330 332 334 334 334 334 334 331 328 328 328 328 327 328 329 331 331 331 329 326 324 322 320 319 318 316 313 310 309 307 307 307 306 306 306 307 308 308 308 309 309 309 309 308 308 307 307 307 307 307 306 305 303 302 300 299 299 299
318 328 332 329 325 318 315 319 322 323 324 328 331 333 331 331 332 333 329 323 323 325 327 328 328 327 326 325 324 324 324 324 324 323 321 319 316 313 310 308 308 307 307 307 307 307 307 308 308 309 310 310 311 311 310 309 308 308 308 308 308 307 305 304 303 302 301 301 301
320 326 324 320 316 313 312 315 320 323 325 327 329 330 329 328 328 327 325 323 323 325 326 326 325 322 321 320 320 322 324 325 325 324 321 318 316 313 311 309 309 309 308 307 307 307 307 307 308 310 311 312 313 312 311 310 309 309 309 309 308 306 305 303 302 301 300 300 300
318 320 316 310 311 312 314 316 320 322 323 324 326 326 326 324 322 320 321 323 325 325 323 320 318 317 317 319 321 323 324 324 323 321 319 317 316 314 312 311 310 309 308 307 306 306 306 308 309 311 313 314 313 312 311 310 310 309 309 308 307 306 305 303 302 301 301 300 299
312 311 307 305 309 313 315 316 318 319 321 322 322 321 320 318 317 317 319 321 322 320 316 314 314 314 316 318 320 323 323 322 320 317 316 316 316 315 313 312 311 309 307 306 305 306 308 311 311 312 313 314 313 312 312 311 310 310 309 308 307 306 305 304 303 302 302 301 301
307 303 301 304 309 313 314 314 314 316 319 319 317 314 311 310 311 313 314 314 314 312 311 311 312 313 315 318 320 321 320 318 316 315 315 316 317 316 315 313 312 310 307 304 305 308 311 313 312 312 313 314 314 313 313 312 311 310 309 308 307 306 306 305 304 304 303 303 303
300 298 298 301 307 311 311 310 311 314 317 316 312 308 305 304 305 307 308 308 307 308 309 311 311 313 315 318 318 318 317 315 314 314 316 318 319 318 317 315 314 310 305 302 306 310 313 312 311 310 311 313 314 314 314 313 312 311 310 308 308 307 306 306 306 305 305 305 305
291 292 293 296 302 306 306 305 306 310 312 311 308 304 301 299 298 300 301 302 303 306 309 312 311 313 316 317 316 314 312 313 313 314 315 318 320 320 320 318 316 311 304 301 306 311 312 311 310 309 310 312 313 314 315 314 313 312 310 309 308 308 307 307 307 306 306 305 305
285 286 289 292 296 299 300 302 304 306 307 307 304 300 297 296 295 295 295 296 298 303 308 310 308 311 315 314 311 310 310 311 313 315 317 319 320 321 322 320 318 312 305 302 306 310 311 310 309 309 311 312 314 315 316 315 314 312 311 309 308 308 307 307 306 306 306 305 306
283 286 289 291 293 296 299 302 303 302 301 301 298 296 295 296 297 297 296 294 297 301 304 304 303 306 309 308 307 309 310 312 314 316 318 320 321 322 322 321 319 312 304 301 305 309 310 310 310 310 311 313 315 316 317 316 315 313 311 310 308 308 307 307 306 306 306 306 307
284 287 290 293 295 299 301 301 299 298 296 296 295 296 298 300 301 300 298 296 297 298 298 298 299 302 304 305 307 309 311 312 314 317 318 320 321 321 321 321 319 312 304 301 305 309 310 311 311 312 313 315 317 318 318 317 315 313 311 309 308 308 307 307 307 307 307 308 308
286 290 292 295 299 301 301 300 299 297 296 297 299 301 302 303 302 300 296 293 293 294 295 298 300 303 305 307 309 310 311 312 315 317 318 320 321 321 320 320 318 311 303 302 306 310 312 312 313 314 316 317 318 319 319 317 315 312 310 309 308 308 308 308 307 307 308 309 310
289 292 294 296 299 301 302 303 301 301 302 305 306 306 305 302 298 296 293 289 290 292 295 299 301 304 307 308 308 309 310 312 315 317 318 319 320 321 321 320 318 309 302 303 308 312 314 314 315 317 318 319 320 321 321 318 315 312 310 308 308 308 308 308 308 308 309 310 311
292 294 296 297 298 300 302 304 305 306 308 310 310 309 305 301 294 292 291 288 289 293 297 300 302 304 306 307 307 308 310 313 316 317 318 319 321 321 321 320 318 307 301 305 310 314 316 317 318 318 319 320 321 322 321 318 315 311 309 308 308 308 308 309 309 309 309 310 311
294 296 298 299 300 301 303 304 307 309 310 311 311 309 307 302 294 291 290 288 289 293 297 300 301 302 304 306 307 310 312 313 314 315 318 320 322 321 321 321 317 306 301 307 312 316 317 318 319 320 320 321 322 322 321 318 314 311 308 307 307 308 308 308 308 308 308 309 311
295 297 299 301 303 304 303 303 306 309 311 312 311 309 307 302 294 288 286 286 287 292 297 300 300 302 304 305 308 310 311 312 314 317 319 321 322 321 320 321 315 305 303 310 315 318 319 320 320 320 321 321 322 322 320 316 312 308 307 306 307 308 308 308 308 307 308 310 311
295 298 301 303 305 305 303 301 303 306 310 311 310 307 303 296 290 285 282 284 289 295 299 301 302 305 308 307 309 310 311 313 315 318 320 322 322 322 322 321 314 306 308 315 319 321 321 321 321 322 322 322 323 323 320 315 311 307 305 306 308 310 311 311 310 310 310 311 311
295 299 303 305 306 306 304 301 301 304 306 308 307 304 297 290 287 284 283 288 296 301 303 302 305 307 309 309 308 309 311 313 316 319 321 322 323 323 322 322 315 310 312 318 322 323 324 323 323 323 324 325 326 325 321 316 312 310 309 311 313 314 315 315 314 313 312 311 311
297 301 304 306 308 307 304 301 301 302 302 304 304 301 294 289 285 283 286 294 301 304 303 303 304 305 304 305 307 309 312 314 317 320 321 322 323 322 322 322 317 314 316 321 324 326 326 326 326 326 327 327 327 326 323 319 316 315 315 315 316 317 318 319 317 315 314 313 312
300 302 305 307 308 307 304 300 299 299 300 302 300 296 290 287 284 283 289 298 302 303 303 304 304 303 302 305 308 311 313 316 318 321 322 321 321 321 322 322 320 318 319 323 327 328 328 328 328 329 329 329 329 328 326 323 322 320 319 318 318 319 321 321 319 316 314 313 314
301 304 306 308 309 307 304 299 297 297 299 300 297 292 287 284 282 285 292 299 301 303 305 305 302 300 304 310 313 314 316 317 319 321 322 321 320 322 323 324 324 323 324 326 329 330 331 331 331 331 332 332 332 331 330 329 327 325 324 323 322 322 322 321 319 316 314 315 318
305 307 309 309 309 306 302 297 295 295 296 296 294 290 284 280 280 287 295 300 302 305 308 308 301 301 307 312 314 316 317 318 319 320 321 322 323 324 326 328 329 329 328 328 331 332 333 334 334 334 334 335 335 335 335 334 333 331 330 328 326 323 321 320 318 317 317 319 323
308 310 310 310 309 306 302 296 293 292 292 291 289 286 282 279 284 292 298 300 303 307 310 308 303 304 309 313 315 316 317 317 317 318 320 323 325 327 329 330 332 332 332 331 332 334 336 336 337 337 337 338 339 340 339 339 337 335 332 329 325 322 320 319 320 321 323 326 329